THOR ABLESTAR DEB, 329

Orbit data source: Space-Track

THOR ABLESTAR DEB, 329 is space debris in LEO originally from a launch on Thu, 29 Jun 1961 UTC launched from the Air Force Eastern Test Range (AFETR). Debris objects in space refer to the collection of defunct objects orbiting the Earth. Examples of debris include non-operational satellites, rocket bodies, and fragments generated from explosions, collisions, or faulty payload assembly.

Loading next visibility...
Identifier
329, 1961-015DF
Orbit
LEO
Country
Flag of USUS
Related business
Manufacturer
Unknown
Mission
Spacecraft
Bus & Motor
Unknown
Mass
Unknown
Launch date (UTC)
1961-06-29 (65 years ago)
Launch vehicle
Unknown
Launch site
Air Force Eastern Test Range (AFETR)
Object type
Payload
Rocket body
Debris
Shape & HBR
Unknown shape, 0.1 m
Radar Cross Section
Medium (>0.1 m² and <1 m²)

Expand to show TLE details & history
Last TLE update: 1 day ago

TLE from 1 day ago
0 THOR ABLESTAR DEB
1 00329U 61015DF  26170.99034656  .00000050  00000-0  14094-3 0  9991
2 00329  66.7811   7.8908 0115717 349.9301 161.0208 13.66128529230396
Epoch: 2026-06-19T23:46Z
TLE epoch observation values (Epoch: 2026-06-19T23:46:05.942Z)
Latitude
26.16704°
Longitude
-88.95048°
Altitude
1,096.826 km
Speed
7.266 km/s
True Right ascension
11h 43m 08s
True Declination
26° 02' 14"
Sunlit
Object was in daylight at epoch
Visualization orbit readout
Latitude
Unknown
Longitude
Unknown
Altitude
Unknown
Speed
Unknown
Apparent Right ascension
Unknown
Apparent Declination
Unknown
Sunlit
N/A
Visualization observer readout
Local Sidereal Time
21:52:50
Azimuth
Unknown
Elevation
Unknown
Doppler factor
Unknown
Orbital elements
Apogee altitude
1,097.433 km
Perigee altitude
926.402 km
Semi-major axis
7,390.054 km
Eccentricity
0.01157
Inclination
66.7811°
RAAN
7.8908°
Arg. of periapsis
349.9301°
True anomaly
161.44623°
Mean anomaly
161.0208°
Eccentric anomaly
161.23409°
Mean motion
3.41642 °/min
Orbital period
105.37 mins
BSTAR
0.00014094

Documentation

Showing up to 5 results
|